Weather History for Jackson, KY

Change the Weather History Date:

Friday, January 17, 2014

  Actual Average Record
Temperature  
Mean Temperature 28 °F 35 °F  
Max Temperature 38 °F 43 °F 62 °F (1990)
Min Temperature 17 °F 27 °F -15 °F (1982)
Degree Days  
Heating Degree Days 37 30  
Month to date heating degree days 553 510  
Since 1 July heating degree days 2198 2144  
Cooling Degree Days 0 0  
Month to date cooling degree days 0 0  
Year to date cooling degree days 0 0  
Moisture  
Dew Point 24 °F    
Average Humidity 74    
Maximum Humidity 92    
Minimum Humidity 56    
Precipitation  
Precipitation 0.15 in 0.11 in 1.23 in (1994)
Month to date precipitation 2.53 1.95  
Year to date precipitation 2.53 1.95  
Snow  
Snow 2.20 in 0.20 in - ()
Month to date snowfall 5.5 3.7  
Since 1 July snowfall 9.8 9.2  
Snow Depth 1.00 in    
Sea Level Pressure  
Sea Level Pressure 29.89 in    
Wind  
Wind Speed 6 mph (WSW)    
Max Wind Speed 16 mph    
Max Gust Speed 24 mph    
Visibility 5 miles    
Events Fog , Snow    
T = Trace of Precipitation, MM = Missing Value Source: NWS Daily Summary

Daily Weather History Graph

Daily Weather History Graph

Search for Another Location

Airport:

Trip Planner

Search our weather history database for the weather conditions in past years. The results will help you decide how hot, cold, wet, or windy it might be!

Date:

Astronomy

Jan. 17, 2014 Rise Set
Actual Time 7:46 AM EST 5:40 PM EST
Civil Twilight 7:17 AM EST 6:09 PM EST
Nautical Twilight 6:45 AM EST 6:41 PM EST
Astronomical Twilight 6:14 AM EST 7:12 PM EST
Moon 7:23 PM EST (1/17) 8:16 AM EST (1/17)
Length of Visible Light 10h 51m
Length of Day
9h 54m
Full, 98% of the Moon is Illuminated
Jan 17
Full
Jan 24
Last Quarter
Jan 30
New
Feb 6
First Quarter
Feb 14
Full

Hourly Weather History & Observations

Time (EST) Temp. Windchill Dew Point Humidity Pressure Visibility Wind Dir Wind Speed Gust Speed Precip Events Conditions
12:53 AM 36.0 °F 33.3 °F 21.9 °F 57% 29.86 in 10.0 mi SSW 3.5 mph - N/A   Overcast
1:53 AM 36.0 °F 28.5 °F 23.0 °F 59% 29.86 in 10.0 mi South 10.4 mph - 0.00 in Snow Light Snow
2:01 AM 33.1 °F 30.0 °F 27.0 °F 78% 29.84 in 1.8 mi Variable 3.5 mph 16.1 mph 0.00 in Snow Light Snow
2:07 AM 32.0 °F - 28.9 °F 88% 29.84 in 1.0 mi Calm Calm - 0.01 in Snow Light Snow
2:14 AM 32.0 °F 28.7 °F 28.9 °F 88% 29.84 in 1.0 mi Variable 3.5 mph - 0.02 in Snow Light Snow
2:22 AM 32.0 °F 27.5 °F 30.0 °F 92% 29.85 in 1.2 mi WSW 4.6 mph - 0.02 in Snow Light Snow
2:33 AM 32.0 °F 28.7 °F 30.0 °F 92% 29.85 in 1.8 mi WSW 3.5 mph - 0.03 in Snow Light Snow
2:48 AM 30.2 °F 24.3 °F 28.4 °F 93% 29.84 in 2.0 mi Variable 5.8 mph - 0.04 in Snow Light Snow
2:53 AM 32.0 °F 27.5 °F 30.0 °F 92% 29.87 in 2.5 mi Variable 4.6 mph - 0.04 in Snow Light Snow
3:05 AM 32.0 °F 27.5 °F 30.0 °F 92% 29.84 in 5.0 mi SW 4.6 mph - 0.00 in Snow Light Snow
3:14 AM 30.9 °F 26.2 °F 30.0 °F 96% 29.84 in 5.0 mi Variable 4.6 mph - 0.00 in Snow Light Snow
3:53 AM 32.0 °F - 30.0 °F 92% 29.85 in 5.0 mi Calm Calm - 0.00 in Snow Light Snow
4:08 AM 30.9 °F 26.2 °F 30.0 °F 96% 29.82 in 3.0 mi Variable 4.6 mph - 0.01 in Snow Light Snow
4:51 AM 30.2 °F 26.7 °F 28.4 °F 93% 29.82 in 9.0 mi Variable 3.5 mph - 0.01 in   Overcast
4:53 AM 30.9 °F 27.5 °F 28.9 °F 92% 29.85 in 9.0 mi Variable 3.5 mph - 0.01 in   Overcast
5:24 AM 30.9 °F - 28.9 °F 92% 29.82 in 10.0 mi Calm Calm - N/A   Overcast
5:53 AM 30.9 °F - 28.9 °F 92% 29.84 in 10.0 mi Calm Calm - N/A   Overcast
6:35 AM 30.0 °F 26.5 °F 28.0 °F 92% 29.80 in 10.0 mi Variable 3.5 mph - N/A   Partly Cloudy
6:53 AM 30.0 °F - 27.0 °F 88% 29.83 in 10.0 mi Calm Calm - N/A   Clear
8:42 AM 32.0 °F 28.7 °F 28.0 °F 85% 29.81 in 10.0 mi Variable 3.5 mph - N/A   Overcast
8:53 AM 32.0 °F 28.7 °F 27.0 °F 82% 29.83 in 10.0 mi Variable 3.5 mph - N/A   Mostly Cloudy
9:09 AM 33.1 °F 27.7 °F 28.0 °F 82% 29.80 in 1.8 mi Variable 5.8 mph - 0.00 in Snow Light Snow
9:18 AM 33.1 °F 30.0 °F 28.0 °F 82% 29.81 in 3.0 mi Variable 3.5 mph - 0.00 in Snow Light Snow
9:51 AM 35.6 °F 31.7 °F 28.4 °F 75% 29.81 in 10.0 mi SSW 4.6 mph - 0.00 in   Partly Cloudy
9:53 AM 35.1 °F 31.0 °F 28.9 °F 78% 29.83 in 10.0 mi Variable 4.6 mph - 0.00 in   Partly Cloudy
10:35 AM 37.0 °F 33.3 °F 28.9 °F 73% 29.83 in 10.0 mi Variable 4.6 mph 18.4 mph N/A   Overcast
10:53 AM 37.0 °F 33.3 °F 28.9 °F 73% 29.85 in 10.0 mi Variable 4.6 mph 19.6 mph N/A   Overcast
11:51 AM 35.6 °F 28.0 °F 30.2 °F 81% 29.83 in 1.5 mi WSW 10.4 mph - 0.00 in Snow Light Snow
11:53 AM 34.0 °F 28.8 °F 30.0 °F 85% 29.85 in 1.0 mi SW 5.8 mph - 0.00 in Snow Light Snow
12:01 PM 33.1 °F 25.5 °F 30.0 °F 89% 29.83 in 0.5 mi SW 9.2 mph - 0.01 in Fog , Snow Snow
12:08 PM 33.1 °F 30.0 °F 30.9 °F 92% 29.83 in 0.5 mi Variable 3.5 mph - 0.01 in Fog , Snow Snow
12:17 PM 33.1 °F 27.7 °F 30.9 °F 92% 29.82 in 0.8 mi Variable 5.8 mph - 0.02 in Snow Light Snow
12:29 PM 32.0 °F 24.8 °F 30.0 °F 92% 29.82 in 1.0 mi WSW 8.1 mph - 0.02 in Snow Light Snow
12:36 PM 32.0 °F 24.8 °F 30.9 °F 96% 29.81 in 0.8 mi West 8.1 mph - 0.03 in Snow Light Snow
12:53 PM 32.0 °F 24.8 °F 30.0 °F 92% 29.83 in 0.8 mi WSW 8.1 mph - 0.04 in Snow Light Snow
1:49 PM 30.2 °F 22.6 °F 28.4 °F 93% 29.81 in 0.5 mi West 8.1 mph - 0.04 in Fog , Snow Snow
1:53 PM 30.0 °F 18.3 °F 28.0 °F 92% 29.83 in 0.5 mi WNW 17.3 mph 24.2 mph 0.04 in Fog , Snow Snow
2:40 PM 28.0 °F 18.1 °F 25.0 °F 88% 29.85 in 0.5 mi West 11.5 mph 24.2 mph 0.02 in Fog , Snow Snow
2:53 PM 27.0 °F 18.0 °F 23.0 °F 85% 29.90 in 1.0 mi West 9.2 mph 24.2 mph 0.02 in Snow Light Snow
2:57 PM 27.0 °F 18.0 °F 23.0 °F 85% 29.87 in 2.0 mi WSW 9.2 mph 20.7 mph 0.00 in Snow Light Snow
3:05 PM 27.0 °F 20.5 °F 23.0 °F 85% 29.88 in 3.0 mi Variable 5.8 mph 17.3 mph 0.00 in Snow Light Snow
3:13 PM 27.0 °F 19.5 °F 23.0 °F 85% 29.88 in 2.5 mi Variable 6.9 mph - 0.00 in Snow Light Snow
3:23 PM 27.0 °F 19.5 °F 23.0 °F 85% 29.89 in 5.0 mi Variable 6.9 mph 17.3 mph 0.00 in Snow Light Snow
3:53 PM 26.1 °F 17.6 °F 21.0 °F 81% 29.94 in 8.0 mi WSW 8.1 mph 19.6 mph 0.00 in Snow Light Snow
4:13 PM 26.1 °F 16.2 °F 21.0 °F 81% 29.92 in 10.0 mi WSW 10.4 mph 23.0 mph 0.00 in   Overcast
4:53 PM 24.1 °F 15.2 °F 18.0 °F 77% 29.98 in 10.0 mi West 8.1 mph 19.6 mph 0.00 in   Overcast
5:44 PM 21.9 °F 10.4 °F 17.1 °F 82% 29.96 in 2.0 mi West 11.5 mph - 0.00 in Snow Light Snow
5:53 PM 21.9 °F 10.4 °F 16.0 °F 78% 30.01 in 5.0 mi West 11.5 mph 18.4 mph 0.00 in Snow Light Snow
6:51 PM 21.2 °F 11.7 °F 15.8 °F 80% 30.00 in 5.0 mi West 8.1 mph - 0.00 in Snow Light Snow
6:53 PM 21.0 °F 12.4 °F 15.1 °F 78% 30.05 in 4.0 mi WSW 6.9 mph - 0.00 in Snow Light Snow
7:05 PM 21.0 °F 13.4 °F 15.1 °F 78% 30.00 in 8.0 mi Variable 5.8 mph - 0.00 in Snow Light Snow
7:53 PM 19.9 °F 13.4 °F 12.9 °F 74% 30.07 in 10.0 mi Variable 4.6 mph - 0.00 in   Overcast
8:53 PM 19.9 °F 12.1 °F 12.9 °F 74% 30.08 in 6.0 mi West 5.8 mph - 0.00 in Snow Light Snow
9:02 PM 19.9 °F 11.1 °F 14.0 °F 78% 30.04 in 5.0 mi West 6.9 mph - 0.00 in Snow Light Snow
9:32 PM 19.0 °F 8.2 °F 10.9 °F 71% 30.04 in 8.0 mi West 9.2 mph - 0.00 in Snow Light Snow
9:53 PM 19.0 °F 10.0 °F 9.0 °F 65% 30.08 in 10.0 mi West 6.9 mph 18.4 mph 0.00 in   Overcast
10:53 PM 18.0 °F 8.7 °F 8.1 °F 65% 30.09 in 8.0 mi Variable 6.9 mph - 0.00 in Snow Light Snow
11:53 PM 18.0 °F 12.7 °F 8.1 °F 65% 30.07 in 10.0 mi Variable 3.5 mph - 0.00 in   Overcast